Preview of NWS' New Version of Forecast
This preview is not operational and should not be used for support decisions.

Regional Weather Roundup (RWR)

Issued by National Weather Service (NWS)

                            
000
ASUS43 KLSX 181907
RWRMO 

WEATHER SUMMARY FOR MISSOURI
NATIONAL WEATHER SERVICE SPRINGFIELD MO
200 PM CDT MON MAR 18 2019

NOTE: "FAIR" INDICATES FEW OR NO CLOUDS BELOW 12,000 FEET WITH NO
       SIGNIFICANT WEATHER AND/OR OBSTRUCTIONS TO VISIBILITY.
       CURRENT SKY AND/OR WEATHER CONDITIONS ARE NOT AVAILABLE FOR
       CHILLICOTHE AND FARMINGTON.

MOZ001>031-035>038-043-044-053-054-182000-
...NORTHERN AND WESTERN MISSOURI...
  
CITY           SKY/WX    TMP DP  RH WIND       PRES   REMARKS
KANSAS CTY INT PTSUNNY   51  25  36 N10       30.41F                  
KANSAS C DTWN  SUNNY     52  25  35 CALM      30.41F                  
LEE'S SUMMIT   SUNNY     51  25  36 N10G16    30.41F                  
ST JOSEPH      SUNNY     49  21  33 NW7       30.43F                  
CHILLICOTHE      N/A     49  30  48 VRB5      30.43F                  
KIRKSVILLE     SUNNY     48  27  44 CALM      30.42F                  
     
$$
MOZ066>068-077>081-088>096-101>105-182000-
...SOUTHWEST MISSOURI...
  
CITY           SKY/WX    TMP DP  RH WIND       PRES   REMARKS
SPRINGFIELD    MOSUNNY   56  28  34 CALM      30.36F                  
JOPLIN         SUNNY     57  30  35 NE7       30.37F                  
BRANSON        MOSUNNY   55  23  28 SE7       30.37F                  
               
$$
MOZ032>034-039>042-045>050-055>058-069>072-182000-
...CENTRAL MISSOURI...  
  
CITY           SKY/WX    TMP DP  RH WIND       PRES   REMARKS
COLUMBIA       SUNNY     51  23  33 NE8       30.41F                  
JEFFERSON CITY SUNNY     51  19  28 CALM      30.41F                  
ROLLA          SUNNY     51  24  34 N12       30.39F                  
SEDALIA        SUNNY     50  24  36 CALM      30.41F                  
WHITEMAN AFB   MOSUNNY   52  20  28 VRB3      30.41F                  
WARRENSBURG    SUNNY     52  25  35 N3        30.42F                  
OSAGE BEACH    MOSUNNY   54  25  32 VRB7      30.40F                  
               
$$
MOZ051-052-059>065-182000-
...EAST CENTRAL MISSOURI...
  
CITY           SKY/WX    TMP DP  RH WIND       PRES   REMARKS
ST LOUIS INTL  MOSUNNY   50  19  29 N7        30.42F                  
SPIRIT OF STL  SUNNY     50  24  36 CALM      30.41F                  
ST CHARLES     SUNNY     49  26  41 S5        30.42F                  
                   
$$
MOZ072>076-082>087-097>100-106>115-182000-
...SOUTH CENTRAL AND SOUTHEAST MISSOURI...
  
CITY           SKY/WX    TMP DP  RH WIND       PRES   REMARKS
CAPE GIRARDEAU PTSUNNY   54  27  35 NE7       30.41F                  
FARMINGTON     SUNNY     51  23  33 N7        30.38F                  
POPLAR BLUFF   PTSUNNY   54  29  38 CALM      30.39F                  
WEST PLAINS    SUNNY     56  25  30 MISG      30.36F                  
                                       
$$